When you browse on this site, cookies collect data to enhance your experience and personalize the content and advertising you see.
Visit our Privacy Policy to learn more. By continuing to use the site, you agree to this use of cookies and data.
  • In Spain
  • List of Countries
  • For 7 days
  • Water Temperature
  • Weather Map
  • Weather Widgets
  • user-avatar
    Login

    Hourly Weather Sidi Bu-l-Abbas

    Today, 9 December, Monday

    Time Temperature Precipitation Wind Pressure Humidity
    00:00 +10°C° 0 mm 3 mps 726 mmHg 77%
    01:00 +10°C° 0 mm 4 mps 725 mmHg 76%
    02:00 +10°C° 0 mm 4 mps 725 mmHg 75%
    03:00 +10°C° 0 mm 4 mps 725 mmHg 75%
    04:00 +10°C° 0 mm 4 mps 725 mmHg 76%
    05:00 +10°C° 0 mm 4 mps 726 mmHg 76%
    06:00 +10°C° 0 mm 4 mps 726 mmHg 78%
    07:00 +11°C° 0 mm 4 mps 726 mmHg 74%
    08:00 +12°C° 0 mm 5 mps 727 mmHg 71%
    09:00 +13°C° 0 mm 5 mps 727 mmHg 68%
    10:00 +13°C° 0 mm 5 mps 727 mmHg 68%
    11:00 +14°C° 0 mm 6 mps 727 mmHg 69%
    12:00 +15°C° 0 mm 6 mps 727 mmHg 70%
    13:00 +15°C° 0 mm 6 mps 727 mmHg 70%
    14:00 +15°C° 0 mm 5 mps 727 mmHg 71%
    15:00 +15°C° 0 mm 5 mps 727 mmHg 71%
    16:00 +14°C° 0 mm 4 mps 727 mmHg 75%
    17:00 +13°C° 0 mm 3 mps 727 mmHg 79%
    18:00 +13°C° 0 mm 2 mps 727 mmHg 83%
    19:00 +13°C° 0 mm 2 mps 727 mmHg 83%
    20:00 +13°C° 0 mm 2 mps 727 mmHg 83%
    21:00 +13°C° 0 mm 2 mps 727 mmHg 83%
    22:00 +12°C° 0 mm 2 mps 727 mmHg 84%
    23:00 +12°C° 0 mm 2 mps 727 mmHg 85%

    Tomorrow, 10 December, Tuesday

    Time Temperature Precipitation Wind Pressure Humidity
    00:00 +12°C° 0 mm 2 mps 727 mmHg 87%
    01:00 +12°C° 0 mm 2 mps 727 mmHg 87%
    02:00 +12°C° 0 mm 2 mps 726 mmHg 87%
    03:00 +12°C° 0 mm 2 mps 726 mmHg 87%
    04:00 +10°C° 0 mm 2 mps 726 mmHg 87%
    05:00 +10°C° 0 mm 2 mps 726 mmHg 86%
    06:00 +11°C° 0 mm 1 mps 726 mmHg 86%
    07:00 +12°C° 0 mm 2 mps 726 mmHg 80%
    08:00 +13°C° 0 mm 2 mps 727 mmHg 74%
    09:00 +15°C° 0 mm 2 mps 727 mmHg 68%
    10:00 +16°C° 0 mm 2 mps 727 mmHg 61%
    11:00 +17°C° 0 mm 3 mps 727 mmHg 54%
    12:00 +18°C° 0 mm 4 mps 726 mmHg 47%
    13:00 +18°C° 0 mm 4 mps 726 mmHg 48%
    14:00 +18°C° 0 mm 4 mps 725 mmHg 50%
    15:00 +18°C° 0 mm 4 mps 725 mmHg 51%
    16:00 +16°C° 0 mm 3 mps 725 mmHg 60%
    17:00 +15°C° 0 mm 2 mps 725 mmHg 68%
    18:00 +13°C° 0 mm 1 mps 724 mmHg 77%
    19:00 +13°C° 0 mm 1 mps 725 mmHg 76%
    20:00 +13°C° 0 mm 1 mps 725 mmHg 75%
    21:00 +12°C° 0 mm 1 mps 725 mmHg 74%
    22:00 +12°C° 0 mm 1 mps 725 mmHg 73%
    23:00 +12°C° 0 mm 1 mps 724 mmHg 73%

    Day after tomorrow, 11 December, Wednesday

    Time Temperature Precipitation Wind Pressure Humidity
    00:00 +12°C° 0 mm 1 mps 724 mmHg 72%
    01:00 +12°C° 0 mm 2 mps 724 mmHg 70%
    02:00 +12°C° 0 mm 2 mps 724 mmHg 68%
    03:00 +10°C° 0 mm 2 mps 723 mmHg 66%
    04:00 +10°C° 0 mm 2 mps 723 mmHg 66%
    05:00 +10°C° 0 mm 2 mps 723 mmHg 66%
    06:00 +10°C° 0 mm 2 mps 723 mmHg 65%
    07:00 +11°C° 0 mm 3 mps 724 mmHg 63%
    08:00 +12°C° 0 mm 3 mps 724 mmHg 61%
    09:00 +13°C° 0 mm 3 mps 725 mmHg 59%
    10:00 +14°C° 0 mm 5 mps 725 mmHg 55%
    11:00 +15°C° 0 mm 7 mps 724 mmHg 51%
    12:00 +16°C° 0 mm 9 mps 724 mmHg 46%
    13:00 +16°C° 0 mm 10 mps 724 mmHg 46%
    14:00 +16°C° 0 mm 10 mps 724 mmHg 46%
    15:00 +16°C° 0 mm 11 mps 723 mmHg 45%
    16:00 +13°C° 0 mm 9 mps 723 mmHg 52%
    17:00 +12°C° 0 mm 8 mps 723 mmHg 58%
    18:00 +11°C° 0 mm 6 mps 723 mmHg 64%
    19:00 +11°C° 0 mm 6 mps 724 mmHg 69%
    20:00 +12°C° 0 mm 5 mps 724 mmHg 73%
    21:00 +10°C° 0 mm 5 mps 725 mmHg 77%
    22:00 +11°C° 0.1 mm 4 mps 725 mmHg 81%
    23:00 +11°C° 0.1 mm 4 mps 725 mmHg 84%

    12 December, Thursday

    Time Temperature Precipitation Wind Pressure Humidity
    00:00 +11°C° 0.1 mm 4 mps 725 mmHg 87%
    01:00 +11°C° 0.1 mm 4 mps 725 mmHg 89%
    02:00 +11°C° 0.1 mm 4 mps 725 mmHg 91%
    03:00 +11°C° 0.1 mm 4 mps 725 mmHg 93%
    04:00 +11°C° 0 mm 4 mps 725 mmHg 93%
    05:00 +11°C° 0 mm 4 mps 725 mmHg 93%
    06:00 +10°C° 0 mm 4 mps 725 mmHg 92%
    07:00 +10°C° 0 mm 5 mps 725 mmHg 88%
    08:00 +10°C° 0 mm 6 mps 725 mmHg 84%
    09:00 +11°C° 0 mm 7 mps 726 mmHg 80%
    10:00 +11°C° 0 mm 7 mps 726 mmHg 75%
    11:00 +12°C° 0 mm 8 mps 725 mmHg 71%
    12:00 +13°C° 0 mm 8 mps 725 mmHg 66%
    13:00 +13°C° 0 mm 8 mps 725 mmHg 64%
    14:00 +13°C° 0 mm 9 mps 725 mmHg 61%
    15:00 +12°C° 0 mm 9 mps 724 mmHg 59%
    16:00 +11°C° 0 mm 8 mps 724 mmHg 63%
    17:00 +10°C° 0 mm 7 mps 724 mmHg 67%
    18:00 +9°C° 0 mm 7 mps 724 mmHg 71%
    19:00 +9°C° 0 mm 7 mps 725 mmHg 71%
    20:00 +9°C° 0 mm 7 mps 725 mmHg 71%
    21:00 +9°C° 0 mm 7 mps 725 mmHg 71%
    22:00 +8°C° 0 mm 7 mps 725 mmHg 72%
    23:00 +8°C° 0 mm 7 mps 725 mmHg 72%

    13 December, Friday

    Time Temperature Precipitation Wind Pressure Humidity
    00:00 +8°C° 0 mm 7 mps 725 mmHg 73%
    01:00 +8°C° 0 mm 7 mps 725 mmHg 76%
    02:00 +7°C° 0 mm 8 mps 725 mmHg 78%
    03:00 +7°C° 0 mm 8 mps 725 mmHg 81%
    04:00 +7°C° 0 mm 8 mps 725 mmHg 81%
    05:00 +7°C° 0 mm 8 mps 725 mmHg 81%
    06:00 +8°C° 0 mm 7 mps 725 mmHg 82%
    07:00 +9°C° 0 mm 8 mps 725 mmHg 78%
    08:00 +9°C° 0 mm 8 mps 725 mmHg 73%
    09:00 +10°C° 0 mm 9 mps 726 mmHg 69%
    10:00 +11°C° 0 mm 9 mps 725 mmHg 66%
    11:00 +12°C° 0 mm 10 mps 725 mmHg 63%
    12:00 +13°C° 0 mm 10 mps 725 mmHg 60%
    13:00 +13°C° 0 mm 10 mps 724 mmHg 59%
    14:00 +13°C° 0 mm 10 mps 724 mmHg 58%
    15:00 +13°C° 0 mm 9 mps 724 mmHg 57%
    16:00 +12°C° 0 mm 8 mps 724 mmHg 62%
    17:00 +12°C° 0 mm 7 mps 723 mmHg 67%
    18:00 +11°C° 0 mm 6 mps 723 mmHg 72%
    19:00 +10°C° 0 mm 5 mps 724 mmHg 75%
    20:00 +11°C° 0 mm 4 mps 724 mmHg 78%
    21:00 +11°C° 0 mm 4 mps 724 mmHg 82%
    22:00 +11°C° 0 mm 3 mps 724 mmHg 81%
    23:00 +11°C° 0 mm 3 mps 724 mmHg 81%

    14 December, Saturday

    Time Temperature Precipitation Wind Pressure Humidity
    00:00 +10°C° 0 mm 3 mps 724 mmHg 80%
    01:00 +10°C° 0 mm 3 mps 723 mmHg 79%
    02:00 +10°C° 0 mm 3 mps 723 mmHg 78%
    03:00 +10°C° 0 mm 3 mps 723 mmHg 76%
    04:00 +10°C° 0 mm 2 mps 723 mmHg 74%
    05:00 +10°C° 0 mm 2 mps 723 mmHg 72%
    06:00 +10°C° 0 mm 2 mps 723 mmHg 69%
    07:00 +12°C° 0 mm 2 mps 723 mmHg 66%
    08:00 +13°C° 0 mm 2 mps 723 mmHg 62%
    09:00 +15°C° 0 mm 2 mps 724 mmHg 58%
    10:00 +16°C° 0 mm 2 mps 724 mmHg 54%
    11:00 +17°C° 0 mm 3 mps 724 mmHg 50%
    12:00 +18°C° 0 mm 3 mps 723 mmHg 46%
    13:00 +19°C° 0 mm 3 mps 723 mmHg 46%
    14:00 +19°C° 0 mm 2 mps 723 mmHg 47%
    15:00 +19°C° 0 mm 2 mps 722 mmHg 47%
    16:00 +18°C° 0 mm 1 mps 722 mmHg 55%
    17:00 +16°C° 0 mm 1 mps 722 mmHg 62%
    18:00 +14°C° 0 mm 1 mps 722 mmHg 69%
    19:00 +14°C° 0 mm 1 mps 722 mmHg 69%
    20:00 +14°C° 0 mm 1 mps 722 mmHg 69%
    21:00 +14°C° 0 mm 1 mps 722 mmHg 69%
    22:00 +13°C° 0 mm 1 mps 722 mmHg 70%
    23:00 +13°C° 0 mm 1 mps 721 mmHg 70%
    Show more